Location: Haliburton Scout Reserve
(45.0900°N, 78.3200°W)
Time: 03:34:27
(UTC-04:00)

PCSat - Pass Details

Date: 25 May 2022
Orbit: 784 x 795 km, 67.1° (Epoch: 24 June)

Event Time Altitude Azimuth Distance (km) Brightness Sun altitude
Rises 04:00:41 0° 321° (NW) 3,304 12.9 -13.4°
Reaches altitude 10° 04:03:17 10° 312° (NW) 2,370 12.1 -13.1°
Maximum altitude 04:08:09 34° 249° (WSW) 1,275 10.2 -12.5°
Drops below altitude 10° 04:12:59 10° 185° (S) 2,352 11.6 -11.9°
Enters shadow 04:13:36 - 182° (S) 2,563 11.8 -11.9°
